DLH12FR EDDH-EGKK

Flight info

Callsign DLH12FR
Flight time 1h 32m
Altitude 40000
Route WSN5G WSN N125 ITMIZ DCT GALSO Q63 ARREK Y4 TEBRA
Aircraft B748/H-SDE3FGHIM1M2RWXY/LB1

Departure

Time 2026-04-24 21:48
Airport Hamburg Helmut Schmidt Airport (EDDH)

Arrival

Time 2026-04-24 23:20
Airport London Gatwick Airport (EGKK)
Time Latitude Longitude Altitude Speed Heading
2026-04-24 21:11 53.62890 10.00219 57 ft 0 kts 123°
2026-04-24 21:36 53.62893 10.00212 49 ft 2 kts 123°
2026-04-24 21:36 53.62902 10.00189 49 ft 2 kts 123°
2026-04-24 21:37 53.62906 10.00181 49 ft 2 kts 124°
2026-04-24 21:37 53.62913 10.00164 49 ft 2 kts 124°
2026-04-24 21:37 53.62919 10.00147 49 ft 2 kts 131°
2026-04-24 21:37 53.62928 10.00132 49 ft 2 kts 146°
2026-04-24 21:38 53.62937 10.00123 57 ft 2 kts 155°
2026-04-24 21:38 53.62946 10.00116 49 ft 2 kts 166°
2026-04-24 21:38 53.62957 10.00111 54 ft 2 kts 176°
2026-04-24 21:38 53.62967 10.00110 49 ft 2 kts 196°
2026-04-24 21:39 53.62977 10.00117 49 ft 2 kts 212°
2026-04-24 21:39 53.62986 10.00126 49 ft 0 kts 213°
2026-04-24 21:44 53.62984 10.00124 49 ft 1 kts 213°
2026-04-24 21:45 53.62978 10.00118 49 ft 3 kts 213°
2026-04-24 21:45 53.62948 10.00087 49 ft 8 kts 210°
2026-04-24 21:45 53.62883 10.00033 55 ft 12 kts 212°
2026-04-24 21:45 53.62848 9.99967 52 ft 1 kts 238°
2026-04-24 21:46 53.62833 9.99923 51 ft 8 kts 241°
2026-04-24 21:46 53.62817 9.99819 50 ft 8 kts 285°
2026-04-24 21:46 53.62865 9.99746 49 ft 11 kts 329°
2026-04-24 21:46 53.62901 9.99712 49 ft 3 kts 332°
2026-04-24 21:47 53.62919 9.99697 50 ft 0 kts 332°
2026-04-24 21:47 53.62969 9.99653 48 ft 36 kts 333°
2026-04-24 21:47 53.63697 9.99030 50 ft 139 kts 333°
2026-04-24 21:47 53.64742 9.98144 321 ft 187 kts 332°
2026-04-24 21:48 53.66014 9.97089 951 ft 225 kts 330°
2026-04-24 21:48 53.67445 9.95860 1541 ft 232 kts 331°
2026-04-24 21:48 53.68880 9.94627 2169 ft 231 kts 331°
2026-04-24 21:48 53.70285 9.93282 2795 ft 235 kts 319°
2026-04-24 21:49 53.71170 9.90971 3460 ft 242 kts 287°
2026-04-24 21:49 53.71148 9.88082 4161 ft 255 kts 256°
2026-04-24 21:49 53.70534 9.85220 4867 ft 259 kts 257°
2026-04-24 21:49 53.70025 9.82289 5506 ft 261 kts 258°
2026-04-24 21:50 53.69523 9.79334 6137 ft 264 kts 257°
2026-04-24 21:50 53.68955 9.76379 6763 ft 267 kts 255°
2026-04-24 21:50 53.68330 9.73416 7370 ft 268 kts 255°
2026-04-24 21:50 53.67724 9.70423 8001 ft 270 kts 256°
2026-04-24 21:51 53.67130 9.67408 8633 ft 272 kts 256°
2026-04-24 21:51 53.66548 9.64413 9249 ft 273 kts 256°
2026-04-24 21:51 53.65952 9.61352 9909 ft 276 kts 256°
2026-04-24 21:51 53.65289 9.58288 10471 ft 286 kts 247°
2026-04-24 21:52 53.64043 9.55394 10708 ft 318 kts 238°
2026-04-24 21:52 53.62771 9.52327 11376 ft 322 kts 241°
2026-04-24 21:52 53.61525 9.49171 12009 ft 326 kts 240°
2026-04-24 21:52 53.60221 9.46027 12643 ft 330 kts 238°
2026-04-24 21:53 53.58835 9.42922 13287 ft 333 kts 237°
2026-04-24 21:53 53.57453 9.39777 13942 ft 335 kts 238°
2026-04-24 21:53 53.56082 9.36596 14534 ft 337 kts 238°
2026-04-24 21:53 53.54710 9.33387 15140 ft 340 kts 238°
2026-04-24 21:54 53.53322 9.30136 15752 ft 342 kts 238°
2026-04-24 21:54 53.51924 9.26868 16372 ft 346 kts 238°
2026-04-24 21:54 53.50513 9.23585 17014 ft 348 kts 237°
2026-04-24 21:54 53.49082 9.20271 17666 ft 352 kts 237°
2026-04-24 21:55 53.47636 9.16936 18347 ft 355 kts 237°
2026-04-24 21:55 53.46173 9.13571 18942 ft 357 kts 237°
2026-04-24 21:55 53.44718 9.10234 19532 ft 360 kts 237°
2026-04-24 21:55 53.43230 9.06826 20142 ft 363 kts 237°
2026-04-24 21:56 53.41735 9.03405 20763 ft 366 kts 237°
2026-04-24 21:56 53.40223 8.99950 21404 ft 368 kts 237°
2026-04-24 21:56 53.38704 8.96479 22030 ft 371 kts 237°
2026-04-24 21:56 53.37168 8.92974 22698 ft 374 kts 237°
2026-04-24 21:57 53.35622 8.89460 23388 ft 376 kts 236°
2026-04-24 21:57 53.34057 8.85933 24028 ft 377 kts 238°
2026-04-24 21:57 53.32901 8.82047 24617 ft 372 kts 257°
2026-04-24 21:57 53.32340 8.77842 25258 ft 370 kts 259°
2026-04-24 21:58 53.31724 8.73634 25722 ft 376 kts 256°
2026-04-24 21:58 53.30894 8.69476 26239 ft 379 kts 251°
2026-04-24 21:58 53.29928 8.65360 26778 ft 381 kts 250°
2026-04-24 21:58 53.28928 8.61245 27310 ft 383 kts 250°
2026-04-24 21:59 53.28100 8.57456 27847 ft 382 kts 252°
2026-04-24 21:59 53.27200 8.53245 28276 ft 386 kts 252°
2026-04-24 21:59 53.26279 8.49018 28796 ft 388 kts 252°
2026-04-24 21:59 53.25408 8.44745 29314 ft 389 kts 254°
2026-04-24 22:00 53.24643 8.40397 29824 ft 391 kts 255°
2026-04-24 22:00 53.23873 8.36027 30314 ft 393 kts 255°
2026-04-24 22:00 53.23043 8.31662 30748 ft 394 kts 253°
2026-04-24 22:00 53.22178 8.27317 31231 ft 394 kts 253°
2026-04-24 22:01 53.21340 8.22959 31691 ft 395 kts 254°
2026-04-24 22:01 53.20515 8.18583 32147 ft 395 kts 254°
2026-04-24 22:01 53.19697 8.14208 32609 ft 396 kts 254°
2026-04-24 22:01 53.18877 8.09820 33056 ft 396 kts 254°
2026-04-24 22:02 53.18059 8.05428 33490 ft 397 kts 254°
2026-04-24 22:02 53.17240 8.01030 33910 ft 398 kts 254°
2026-04-24 22:02 53.16417 7.96681 34292 ft 399 kts 253°
2026-04-24 22:02 53.15559 7.92277 34594 ft 401 kts 254°
2026-04-24 22:03 53.14712 7.87830 34858 ft 404 kts 254°
2026-04-24 22:03 53.13869 7.83353 35110 ft 406 kts 254°
2026-04-24 22:03 53.13021 7.78848 35372 ft 409 kts 254°
2026-04-24 22:03 53.12162 7.74307 35631 ft 412 kts 254°
2026-04-24 22:04 53.11267 7.69757 35883 ft 415 kts 253°
2026-04-24 22:04 53.10336 7.65192 36120 ft 418 kts 251°
2026-04-24 22:04 53.09223 7.60704 36360 ft 422 kts 248°
2026-04-24 22:04 53.07952 7.56287 36608 ft 425 kts 246°
2026-04-24 22:05 53.06616 7.51873 36841 ft 428 kts 245°
2026-04-24 22:05 53.05287 7.47430 37066 ft 430 kts 246°
2026-04-24 22:05 53.04042 7.42901 37307 ft 432 kts 249°
2026-04-24 22:05 53.02819 7.38325 37530 ft 435 kts 248°
2026-04-24 22:06 53.01544 7.33750 37778 ft 438 kts 246°
2026-04-24 22:06 53.00210 7.29197 37992 ft 440 kts 246°
2026-04-24 22:06 52.98896 7.24601 38219 ft 442 kts 247°
2026-04-24 22:06 52.97626 7.20102 38454 ft 444 kts 247°
2026-04-24 22:07 52.96279 7.15310 38674 ft 446 kts 247°
2026-04-24 22:07 52.94960 7.10616 38880 ft 449 kts 247°
2026-04-24 22:07 52.93648 7.05966 39059 ft 451 kts 247°
2026-04-24 22:07 52.92313 7.01258 39227 ft 453 kts 247°
2026-04-24 22:08 52.90961 6.96522 39402 ft 455 kts 247°
2026-04-24 22:08 52.89598 6.91767 39577 ft 457 kts 246°
2026-04-24 22:08 52.88231 6.87013 39755 ft 459 kts 246°
2026-04-24 22:08 52.86853 6.82237 39926 ft 461 kts 246°
2026-04-24 22:09 52.85468 6.77440 40098 ft 462 kts 246°
2026-04-24 22:09 52.82664 6.67749 40153 ft 473 kts 246°
2026-04-24 22:10 52.79784 6.57829 40162 ft 484 kts 246°
2026-04-24 22:10 52.77352 6.49487 40148 ft 483 kts 246°
2026-04-24 22:11 52.74428 6.39511 40145 ft 482 kts 246°
2026-04-24 22:11 52.71508 6.29575 40157 ft 480 kts 246°
2026-04-24 22:12 52.68607 6.19745 40153 ft 479 kts 246°
2026-04-24 22:12 52.65685 6.09883 40158 ft 479 kts 246°
2026-04-24 22:13 52.62749 6.00014 40159 ft 479 kts 246°
2026-04-24 22:13 52.59807 5.90169 40152 ft 479 kts 245°
2026-04-24 22:14 52.56856 5.80334 40161 ft 479 kts 245°
2026-04-24 22:14 52.53903 5.70532 40151 ft 480 kts 245°
2026-04-24 22:15 52.50930 5.60705 40149 ft 479 kts 245°
2026-04-24 22:15 52.47956 5.50910 40153 ft 480 kts 245°
2026-04-24 22:16 52.44970 5.41120 40154 ft 480 kts 245°
2026-04-24 22:16 52.41975 5.31340 40151 ft 480 kts 245°
2026-04-24 22:17 52.38988 5.21625 40178 ft 480 kts 245°
2026-04-24 22:17 52.36006 5.11965 40175 ft 481 kts 244°
2026-04-24 22:18 52.32981 5.02204 40179 ft 481 kts 244°
2026-04-24 22:18 52.29949 4.92461 40184 ft 481 kts 244°
2026-04-24 22:19 52.26905 4.82719 40179 ft 481 kts 244°
2026-04-24 22:19 52.23855 4.72994 40185 ft 481 kts 244°
2026-04-24 22:20 52.20792 4.63270 40184 ft 482 kts 244°
2026-04-24 22:20 52.17720 4.53551 40172 ft 482 kts 244°
2026-04-24 22:21 52.14662 4.43921 40157 ft 482 kts 244°
2026-04-24 22:21 52.11570 4.34221 40168 ft 483 kts 244°
2026-04-24 22:22 52.08467 4.24524 40164 ft 483 kts 243°
2026-04-24 22:22 52.05355 4.14834 40161 ft 484 kts 243°
2026-04-24 22:23 52.02231 4.05148 40161 ft 484 kts 243°
2026-04-24 22:23 51.99114 3.95522 40172 ft 484 kts 243°
2026-04-24 22:24 51.95956 3.85806 40174 ft 485 kts 243°
2026-04-24 22:24 51.92820 3.76194 40171 ft 485 kts 243°
2026-04-24 22:25 51.89646 3.66511 40173 ft 486 kts 243°
2026-04-24 22:25 51.86480 3.56881 40177 ft 486 kts 242°
2026-04-24 22:26 51.83292 3.47228 40175 ft 487 kts 242°
2026-04-24 22:26 51.80089 3.37564 40172 ft 487 kts 242°
2026-04-24 22:27 51.77562 3.29965 40166 ft 487 kts 242°
2026-04-24 22:27 51.74359 3.20320 40160 ft 487 kts 246°
2026-04-24 22:28 51.72476 3.09842 40183 ft 488 kts 260°
2026-04-24 22:28 51.71625 2.98964 40180 ft 489 kts 264°
2026-04-24 22:29 51.70266 2.82678 40166 ft 489 kts 261°
2026-04-24 22:29 51.69330 2.71889 40167 ft 489 kts 262°
2026-04-24 22:30 51.68396 2.61041 40183 ft 489 kts 261°
2026-04-24 22:30 51.67397 2.50172 40175 ft 490 kts 261°
2026-04-24 22:31 51.66392 2.39321 40174 ft 490 kts 261°
2026-04-24 22:31 51.65394 2.28450 40175 ft 490 kts 261°
2026-04-24 22:32 51.64387 2.17585 40176 ft 491 kts 261°
2026-04-24 22:32 51.63361 2.06720 40177 ft 491 kts 261°
2026-04-24 22:33 51.62350 1.95907 40175 ft 492 kts 261°
2026-04-24 22:33 51.60963 1.85176 40199 ft 490 kts 244°
2026-04-24 22:34 51.57282 1.75943 40187 ft 482 kts 230°
2026-04-24 22:34 51.55151 1.71996 40184 ft 467 kts 227°
2026-04-24 22:34 51.52961 1.68255 40163 ft 452 kts 226°
2026-04-24 22:35 51.48937 1.60713 40201 ft 447 kts 242°
2026-04-24 22:35 51.46435 1.51448 40216 ft 459 kts 250°
2026-04-24 22:36 51.44381 1.41588 39963 ft 471 kts 245°
2026-04-24 22:36 51.42740 1.37130 39677 ft 460 kts 228°
2026-04-24 22:36 51.40501 1.33547 39406 ft 451 kts 219°
2026-04-24 22:37 51.38024 1.30527 39074 ft 444 kts 214°
2026-04-24 22:37 51.35484 1.27772 38684 ft 439 kts 213°
2026-04-24 22:37 51.32959 1.25070 38241 ft 434 kts 214°
2026-04-24 22:37 51.30503 1.22308 37809 ft 429 kts 217°
2026-04-24 22:38 51.28149 1.19421 37402 ft 425 kts 217°
2026-04-24 22:38 51.25814 1.16561 37001 ft 422 kts 216°
2026-04-24 22:38 51.23453 1.13809 36603 ft 418 kts 214°
2026-04-24 22:38 51.21123 1.11154 36225 ft 416 kts 215°
2026-04-24 22:39 51.18793 1.08451 35849 ft 413 kts 216°
2026-04-24 22:39 51.16487 1.05748 35465 ft 409 kts 216°
2026-04-24 22:39 51.14206 1.03064 35102 ft 406 kts 215°
2026-04-24 22:39 51.11939 1.00397 34749 ft 403 kts 215°
2026-04-24 22:40 51.09693 0.97758 34402 ft 400 kts 215°
2026-04-24 22:40 51.07468 0.95133 33992 ft 397 kts 218°
2026-04-24 22:40 51.05628 0.91879 33609 ft 398 kts 237°
2026-04-24 22:40 51.04243 0.88077 33287 ft 397 kts 238°
2026-04-24 22:41 51.02943 0.84206 32898 ft 396 kts 242°
2026-04-24 22:41 51.01788 0.80240 32504 ft 395 kts 243°
2026-04-24 22:41 51.00691 0.76252 32118 ft 393 kts 243°
2026-04-24 22:41 50.99555 0.72289 31724 ft 390 kts 241°
2026-04-24 22:42 50.98362 0.68481 31349 ft 387 kts 240°
2026-04-24 22:42 50.97165 0.64646 30972 ft 385 kts 241°
2026-04-24 22:42 50.96015 0.60859 30621 ft 382 kts 242°
2026-04-24 22:42 50.94887 0.57033 30079 ft 383 kts 242°
2026-04-24 22:43 50.93750 0.53212 29527 ft 383 kts 242°
2026-04-24 22:43 50.92608 0.49403 28977 ft 382 kts 242°
2026-04-24 22:43 50.91819 0.45375 28487 ft 387 kts 262°
2026-04-24 22:43 50.91953 0.41118 28026 ft 391 kts 280°
2026-04-24 22:44 50.92526 0.37132 27599 ft 390 kts 280°
2026-04-24 22:44 50.93233 0.32931 27144 ft 390 kts 284°
2026-04-24 22:44 50.94033 0.28898 26724 ft 388 kts 285°
2026-04-24 22:44 50.94787 0.25234 26356 ft 386 kts 285°
2026-04-24 22:45 50.95653 0.21213 25954 ft 385 kts 288°
2026-04-24 22:45 50.96634 0.17267 25541 ft 383 kts 290°
2026-04-24 22:45 50.97406 0.14171 25242 ft 381 kts 288°
2026-04-24 22:45 50.98277 0.10224 24843 ft 378 kts 286°
2026-04-24 22:46 50.99147 0.06287 24483 ft 376 kts 288°
2026-04-24 22:46 51.00074 0.02529 24141 ft 374 kts 289°
2026-04-24 22:46 51.00984 -0.01285 23779 ft 371 kts 287°
2026-04-24 22:46 51.01834 -0.05144 23372 ft 369 kts 287°
2026-04-24 22:47 51.02708 -0.08961 22973 ft 367 kts 289°
2026-04-24 22:47 51.03623 -0.12735 22563 ft 365 kts 288°
2026-04-24 22:47 51.04505 -0.16493 22166 ft 362 kts 287°
2026-04-24 22:47 51.05335 -0.20262 21784 ft 360 kts 287°
2026-04-24 22:48 51.06169 -0.23953 21406 ft 358 kts 288°
2026-04-24 22:48 51.07044 -0.27658 21014 ft 357 kts 289°
2026-04-24 22:48 51.07912 -0.31356 20636 ft 355 kts 288°
2026-04-24 22:48 51.08756 -0.35038 20257 ft 353 kts 287°
2026-04-24 22:49 51.09569 -0.38713 19889 ft 351 kts 288°
2026-04-24 22:49 51.10395 -0.42362 19525 ft 350 kts 288°
2026-04-24 22:49 51.11228 -0.45985 19165 ft 349 kts 288°
2026-04-24 22:49 51.12259 -0.49467 18791 ft 349 kts 306°
2026-04-24 22:50 51.13998 -0.52120 18475 ft 346 kts 329°
2026-04-24 22:50 51.16212 -0.53516 18127 ft 342 kts 353°
2026-04-24 22:50 51.18547 -0.53475 17784 ft 335 kts 16°
2026-04-24 22:50 51.20657 -0.52042 17365 ft 329 kts 38°
2026-04-24 22:51 51.22494 -0.49863 16917 ft 329 kts 43°
2026-04-24 22:51 51.23962 -0.47132 16513 ft 323 kts 66°
2026-04-24 22:51 51.24589 -0.43806 16149 ft 316 kts 89°
2026-04-24 22:51 51.24355 -0.40368 15844 ft 310 kts 106°
2026-04-24 22:52 51.23635 -0.37150 15507 ft 307 kts 118°
2026-04-24 22:52 51.22699 -0.34102 15142 ft 306 kts 112°
2026-04-24 22:52 51.21971 -0.30919 14833 ft 304 kts 109°
2026-04-24 22:52 51.21317 -0.27720 14512 ft 303 kts 108°
2026-04-24 22:53 51.20650 -0.24547 14194 ft 301 kts 110°
2026-04-24 22:53 51.19909 -0.21443 13843 ft 299 kts 118°
2026-04-24 22:53 51.18583 -0.18937 13537 ft 297 kts 144°
2026-04-24 22:53 51.16784 -0.17361 13252 ft 296 kts 158°
2026-04-24 22:54 51.15140 -0.16510 12917 ft 298 kts 164°
2026-04-24 22:54 51.13054 -0.16119 12514 ft 301 kts 181°
2026-04-24 22:54 51.11002 -0.16856 12144 ft 305 kts 204°
2026-04-24 22:54 51.09215 -0.18704 11789 ft 309 kts 220°
2026-04-24 22:55 51.07828 -0.21316 11410 ft 312 kts 240°
2026-04-24 22:55 51.07066 -0.24560 11038 ft 315 kts 260°
2026-04-24 22:55 51.07023 -0.28028 10667 ft 316 kts 281°
2026-04-24 22:55 51.07686 -0.31334 10332 ft 314 kts 299°
2026-04-24 22:56 51.08676 -0.34379 9940 ft 315 kts 294°
2026-04-24 22:56 51.09436 -0.37665 9502 ft 317 kts 289°
2026-04-24 22:56 51.10116 -0.41014 9073 ft 319 kts 288°
2026-04-24 22:56 51.10817 -0.44379 8649 ft 320 kts 290°
2026-04-24 22:57 51.11599 -0.47703 8225 ft 321 kts 297°
2026-04-24 22:57 51.12939 -0.50472 7929 ft 312 kts 324°
2026-04-24 22:57 51.14801 -0.52020 7796 ft 297 kts 350°
2026-04-24 22:57 51.16807 -0.52141 7557 ft 285 kts 16°
2026-04-24 22:58 51.18633 -0.51027 7252 ft 280 kts 28°
2026-04-24 22:58 51.20351 -0.49597 6945 ft 277 kts 39°
2026-04-24 22:58 51.21256 -0.48202 6736 ft 272 kts 58°
2026-04-24 22:58 51.22157 -0.44586 6472 ft 262 kts 82°
2026-04-24 22:59 51.22190 -0.41717 6248 ft 259 kts 101°
2026-04-24 22:59 51.21608 -0.39007 6025 ft 259 kts 118°
2026-04-24 22:59 51.20309 -0.34685 5641 ft 256 kts 109°
2026-04-24 23:00 51.19743 -0.32031 5674 ft 256 kts 108°
2026-04-24 23:00 51.19195 -0.29339 5678 ft 255 kts 108°
2026-04-24 23:00 51.18609 -0.26651 5666 ft 256 kts 109°
2026-04-24 23:00 51.17954 -0.24004 5656 ft 258 kts 119°
2026-04-24 23:01 51.16727 -0.21926 5702 ft 261 kts 143°
2026-04-24 23:01 51.15368 -0.20775 5702 ft 254 kts 157°
2026-04-24 23:01 51.13717 -0.19941 5664 ft 245 kts 167°
2026-04-24 23:01 51.12033 -0.19787 5648 ft 242 kts 182°
2026-04-24 23:02 51.10399 -0.20470 5653 ft 247 kts 205°
2026-04-24 23:02 51.09000 -0.22009 5697 ft 251 kts 222°
2026-04-24 23:02 51.07902 -0.24228 5718 ft 254 kts 242°
2026-04-24 23:02 51.07323 -0.26851 5669 ft 257 kts 262°
2026-04-24 23:03 51.07333 -0.29695 5393 ft 259 kts 283°
2026-04-24 23:03 51.07913 -0.32385 5114 ft 258 kts 301°
2026-04-24 23:03 51.08755 -0.34919 4769 ft 260 kts 295°
2026-04-24 23:03 51.09392 -0.37622 4440 ft 262 kts 289°
2026-04-24 23:04 51.09954 -0.40389 4182 ft 261 kts 289°
2026-04-24 23:04 51.10523 -0.43076 4191 ft 252 kts 290°
2026-04-24 23:04 51.11154 -0.45745 4196 ft 259 kts 295°
2026-04-24 23:04 51.12193 -0.47980 4127 ft 248 kts 328°
2026-04-24 23:05 51.13738 -0.49001 4020 ft 239 kts
2026-04-24 23:05 51.15324 -0.48585 3887 ft 229 kts 34°
2026-04-24 23:05 51.16438 -0.46946 3746 ft 220 kts 65°
2026-04-24 23:05 51.17050 -0.44758 3930 ft 215 kts 82°
2026-04-24 23:06 51.16935 -0.42451 4625 ft 203 kts 108°
2026-04-24 23:06 51.16442 -0.40191 4782 ft 221 kts 110°
2026-04-24 23:06 51.15895 -0.37919 5183 ft 222 kts 112°
2026-04-24 23:06 51.15309 -0.35620 5054 ft 224 kts 112°
2026-04-24 23:07 51.14726 -0.33511 4721 ft 193 kts 115°
2026-04-24 23:07 51.14144 -0.31687 3950 ft 183 kts 111°
2026-04-24 23:07 51.13770 -0.29778 3080 ft 175 kts 103°
2026-04-24 23:07 51.13632 -0.27942 2192 ft 163 kts 88°
2026-04-24 23:08 51.13824 -0.26185 1308 ft 156 kts 77°
2026-04-24 23:08 51.14043 -0.24595 753 ft 142 kts 78°
2026-04-24 23:08 51.14269 -0.22930 543 ft 172 kts 78°
2026-04-24 23:08 51.14544 -0.20951 394 ft 188 kts 77°
2026-04-24 23:09 51.14800 -0.19106 357 ft 163 kts 77°
2026-04-24 23:09 51.15033 -0.17358 791 ft 167 kts 77°
2026-04-24 23:09 51.15291 -0.15494 975 ft 177 kts 77°
2026-04-24 23:09 51.15576 -0.13517 1111 ft 190 kts 76°
2026-04-24 23:10 51.15823 -0.11441 1554 ft 188 kts 86°
2026-04-24 23:10 51.15527 -0.09428 1978 ft 192 kts 120°
2026-04-24 23:10 51.14637 -0.07684 2462 ft 215 kts 129°
2026-04-24 23:10 51.13501 -0.06026 2891 ft 229 kts 148°
2026-04-24 23:11 51.11924 -0.05371 3106 ft 239 kts 170°
2026-04-24 23:11 51.10263 -0.05148 3086 ft 241 kts 173°
2026-04-24 23:11 51.08611 -0.05007 3014 ft 241 kts 174°
2026-04-24 23:11 51.06939 -0.04937 3101 ft 242 kts 181°
2026-04-24 23:12 51.05339 -0.05832 3115 ft 251 kts 214°
2026-04-24 23:12 51.04226 -0.07981 3128 ft 257 kts 246°
2026-04-24 23:12 51.03786 -0.10754 3116 ft 260 kts 261°
2026-04-24 23:12 51.03543 -0.13589 3097 ft 259 kts 263°
2026-04-24 23:13 51.03354 -0.16430 3101 ft 259 kts 264°
2026-04-24 23:13 51.03183 -0.19281 3095 ft 258 kts 264°
2026-04-24 23:13 51.03027 -0.22122 3093 ft 258 kts 265°
2026-04-24 23:13 51.02877 -0.24968 3093 ft 258 kts 265°
2026-04-24 23:14 51.02731 -0.27801 3091 ft 257 kts 264°
2026-04-24 23:14 51.02588 -0.30646 3088 ft 258 kts 265°
2026-04-24 23:14 51.02469 -0.33491 3073 ft 258 kts 268°
2026-04-24 23:14 51.02450 -0.36337 3084 ft 258 kts 270°
2026-04-24 23:15 51.02599 -0.39134 3076 ft 258 kts 287°
2026-04-24 23:15 51.03438 -0.41616 3110 ft 256 kts 318°
2026-04-24 23:15 51.04863 -0.43270 3117 ft 253 kts 333°
2026-04-24 23:15 51.06391 -0.44646 3096 ft 252 kts 335°
2026-04-24 23:16 51.07924 -0.45943 3059 ft 243 kts 336°
2026-04-24 23:16 51.09397 -0.47158 3081 ft 237 kts 336°
2026-04-24 23:16 51.10935 -0.47914 3020 ft 231 kts
2026-04-24 23:16 51.12432 -0.47263 2747 ft 222 kts 40°
2026-04-24 23:17 51.13304 -0.45430 2993 ft 206 kts 73°
2026-04-24 23:17 51.13652 -0.43175 2906 ft 211 kts 84°
2026-04-24 23:17 51.13607 -0.40866 3053 ft 208 kts 98°
2026-04-24 23:17 51.13394 -0.38629 3482 ft 208 kts 100°
2026-04-24 23:18 51.13145 -0.36369 3442 ft 207 kts 101°
2026-04-24 23:18 51.12958 -0.34114 3084 ft 202 kts 88°
2026-04-24 23:18 51.13106 -0.31900 2147 ft 200 kts 83°
2026-04-24 23:18 51.13314 -0.29848 1727 ft 177 kts 81°
2026-04-24 23:19 51.13563 -0.28022 1304 ft 159 kts 77°
2026-04-24 23:19 51.13803 -0.26330 980 ft 154 kts 77°
2026-04-24 23:19 51.14033 -0.24666 679 ft 153 kts 78°
2026-04-24 23:19 51.14268 -0.22985 428 ft 157 kts 78°
2026-04-24 23:20 51.14497 -0.21319 306 ft 154 kts 77°
2026-04-24 23:20 51.14722 -0.19674 221 ft 141 kts 77°
2026-04-24 23:20 51.14923 -0.18224 214 ft 120 kts 78°
2026-04-24 23:20 51.15014 -0.17566 221 ft 27 kts 77°
2026-04-24 23:21 51.15085 -0.17274 219 ft 30 kts 56°
2026-04-24 23:21 51.15146 -0.17215 217 ft 6 kts 353°
2026-04-24 23:21 51.15191 -0.17255 221 ft 10 kts 326°
2026-04-24 23:21 51.15261 -0.17332 221 ft 12 kts 330°
2026-04-24 23:22 51.15319 -0.17363 220 ft 8 kts 345°
2026-04-24 23:22 51.15399 -0.17391 217 ft 16 kts 347°
2026-04-24 23:22 51.15516 -0.17433 218 ft 17 kts 346°
2026-04-24 23:22 51.15581 -0.17455 218 ft 19 kts 348°
2026-04-24 23:23 51.15702 -0.17500 219 ft 16 kts 346°
2026-04-24 23:23 51.15746 -0.17580 220 ft 5 kts 274°
2026-04-24 23:23 51.15745 -0.17620 217 ft 2 kts 265°
2026-04-24 23:23 51.15739 -0.17677 218 ft 22 kts 258°
2026-04-24 23:24 51.15712 -0.17873 214 ft 14 kts 258°
2026-04-24 23:24 51.15697 -0.17994 217 ft 4 kts 270°
2026-04-24 23:24 51.15725 -0.18038 217 ft 9 kts 334°
2026-04-24 23:24 51.15819 -0.18074 218 ft 18 kts 348°
2026-04-24 23:25 51.15878 -0.18089 217 ft 7 kts 347°
2026-04-24 23:25 51.15909 -0.18079 218 ft 5 kts 36°
2026-04-24 23:25 51.15920 -0.18006 219 ft 6 kts 86°
2026-04-24 23:25 51.15921 -0.17995 219 ft 1 kts 84°
2026-04-24 23:26 51.15923 -0.17977 217 ft 0 kts 78°
2026-04-24 23:26 51.15923 -0.17976 216 ft 0 kts 78°
2026-04-24 23:26 51.15925 -0.17963 214 ft 0 kts 78°